[Date Prev][Date Next][Thread Prev][Thread Next] - [Date Index][Thread Index][Author Index]
2 Line ISS Keps 11-22
- Subject: [sarex] 2 Line ISS Keps 11-22
- From: "Dave Larsen PhD" <doc@xxxxxxxxxxx>
- Date: Mon, 22 Nov 2004 03:15:15 -0800
ISS
1 25544U 98067A 04327.36284722 .00023459 00000-0 19204-3 0 1983
2 25544 51.6389 238.5253 0004416 36.8149 114.8379 15.70400029343166
----
Via the sarex mailing list at AMSAT.ORG courtesy of AMSAT-NA.
To unsubscribe, send "unsubscribe sarex" to Majordomo@amsat.org
AMSAT Home